Погода в Андуани

Мадагаскар     13°23′59″S   48°16′59″E
темп.,
°C
ветер,
м/с
пор.,
м/с
влажн.,
%
обл.,
%
осадки,
мм/ч
давл.,
гПа
погр.,
м
1 марта, пн
пн100:00+28всв2273100 0.0 1009542
03:00+28всв457796 0.0 1008575
06:00+27в448050 1.7 1009392
09:00+27всв457832 7.8 1011428
12:00+28ссв567629 4.9 1009652
15:00+29ссз557243 5.3 1008865
18:00+29ссз3373100 6.7 1009324
21:00+29ссз2372100 16.4 1011429
2 марта, вт
вт200:00+28всв2273100 0.4 1010419
03:00+27вюв448057 2.9 1010221
06:00+27вюв447991 4.6 1010207
09:00+28св457655 5.6 1012443
12:00+28с55763 0.2 1010626
15:00+29ссз457113 0.7 1009885
18:00+29ссз447199 0.2 1010965
21:00+29с4473100 2.6 1012629
3 марта, ср
ср300:00+28в3474100 1.6 1011417
03:00+27всв3375100 2.3 1009471
06:00+26в2278100 0.3 1010383
09:00+26в337880 0.3 1011256
12:00+27с347599 0.0 1009325
15:00+28ссз447595 0.0 1008491
18:00+28ссз457833 4.0 1009361
21:00+28сз337663 10.6 1011308
4 марта, чт
чт400:00+26ююв558389 2.6 1009268
03:00+26юв667995 2.9 1009259
06:00+26в3372100 0.0 1009246
09:00+27в227393 0.7 1011262
12:00+27ююв2273100 1.9 1009180
15:00+28зсз1270100 1.9 1007464
18:00+28зсз2267100 0.3 1009581
21:00+28сз2370100 0.3 1010761
5 марта, пт
пт500:00+28ссв2271100 0.0 1009845
03:00+27в337589 0.0 1008446
06:00+27св2376100 0.9 1009434
09:00+26всв2379100 4.7 1010297
12:00+27всв2379100 3.9 1009189
15:00+28зсз4676100 9.6 1007731
18:00+27зсз788280 7.7 1009786
21:00+28зсз11127890 14.6 10101078